Akbeit

Kazakhstan     51˚38′30″N   70˚02′14″E
temp.,
°C
wind,
m/s
gust,
m/s
humid.,
%
clouds,
%
prec.,
mm/h
press.,
hPa
HPBL,
m
30 november, mon
mon3023:00−16˚nnw339569 0.0 104929
02:00−17˚nnw239544 0.0 104921
05:00−18˚n229559 0.0 105020
08:00−19˚nne129614 0.0 105120
11:00−17˚e22927 0.0 105287
14:00−16˚e12931 0.0 105145
17:00−19˚ene22951 0.0 105320
20:00−20˚ene34960 0.0 105340
1 december, tue
tue123:00−20˚e33970 0.0 105343
02:00−20˚ene349834 0.0 105252
05:00−21˚ene349852 0.0 105357
08:00−21˚ene469736 0.0 105289
11:00−18˚e489318 0.0 1053236
14:00−16˚ene48920 0.0 1051221
17:00−17˚ene49930 0.0 1051148
20:00−17˚ene510950 0.0 1050162
2 december, wed
wed223:00−17˚ene510940 0.0 1049162
02:00−16˚e511940 0.0 1049197
05:00−15˚ene512910 0.0 1048230
08:00−15˚e512910 0.0 1047246
11:00−13˚e612900 0.0 1045291
14:00−12˚ene612890 0.0 1044283
17:00−15˚ene612890 0.0 1043247
20:00−16˚ene6118978 0.0 1042261
3 december, thu
thu323:00−17˚ene5119064 0.0 1041244
02:00−18˚ene5109287 0.0 1040213
05:00−18˚ene5109375 0.0 1039205
08:00−19˚ene511930 0.0 1039237
11:00−17˚ene5109123 0.0 1038278
14:00−16˚ene5989100 0.0 1037317
17:00−17˚ene61190100 0.0 1036300
20:00−17˚ene61290100 0.0 1036286
4 december, fri
fri423:00−18˚ene6129199 0.0 1036290
02:00−18˚ene6139098 0.0 1035344
05:00−19˚ene6129198 0.0 1035334
08:00−18˚ene6129097 0.0 1036326
11:00−17˚ene6138994 0.0 1036348
14:00−16˚ene6118986 0.0 1036344
17:00−18˚ene5129249 0.0 1037282
20:00−18˚ene6129286 0.0 1037302